Location: Unspecified
(50.0000°N, 15.0000°E)
Time: 02:12:31
(UTC+02:00)

ISS - Pass Details

Date: 23 September 2021
Orbit: 417 x 423 km, 51.6° (Epoch: 24 October)

Event Time Altitude Azimuth Distance (km) Brightness Sun altitude
Rises 21:41:56 0° 281° (W) 2,366 1.1 -26.0°
Reaches altitude 10° 21:44:02 10° 283° (WNW) 1,502 -0.1 -26.3°
Enters shadow 21:45:36 25° 289° (WNW) 891 -1.5 -26.5°
